Location: Poughquag
(41.6090°N, 73.6820°W)
Time: 03:14:59
(UTC-05:00)

VELOX 1 - Visible Passes

Search period start: 09 December 2023 00:00
Search period end: 19 December 2023 00:00
Orbit: 610 x 625 km, 98.4° (Epoch: 09 December)

Date Brightness Start Highest point End Pass type
(mag) Time Alt. Az. Time Alt. Az. Time Alt. Az.
09 Dec ? 06:11:51 10° SSE 06:16:03 61° ENE 06:20:17 10° N visible
10 Dec ? 06:28:18 10° SSE 06:32:34 88° WSW 06:36:53 10° NNW visible
11 Dec ? 05:11:27 10° E 05:13:36 14° ENE 05:15:46 10° NNE visible
12 Dec ? 05:26:53 10° ESE 05:29:58 20° ENE 05:33:04 10° NNE visible
13 Dec ? 05:42:42 10° SE 05:46:22 28° ENE 05:50:02 10° N visible
14 Dec ? 05:58:46 10° SE 06:02:47 42° ENE 06:06:50 10° N visible
15 Dec ? 06:15:02 10° SSE 06:19:15 64° ENE 06:23:29 10° N visible
16 Dec ? 06:31:28 10° SSE 06:35:44 84° WSW 06:40:02 10° NNW visible
17 Dec ? 05:14:25 10° E 05:16:43 14° ENE 05:19:00 10° NNE visible
18 Dec ? 05:29:53 10° ESE 05:33:02 20° ENE 05:36:13 10° NNE visible
